Weather History for Fort Indiantown Gap, PA

Change the Weather History Date:

Saturday, January 4, 2014

  Actual Average Record
Temperature  
Mean Temperature 11 °F -  
Max Temperature 25 °F 36 °F 62 °F (2000)
Min Temperature -3 °F 26 °F -3 °F (2014)
Degree Days  
Heating Degree Days 54    
Moisture  
Dew Point 4 °F    
Average Humidity 80    
Maximum Humidity 99    
Minimum Humidity 46    
Precipitation  
Precipitation 0.00 in - - ()
Sea Level Pressure  
Sea Level Pressure 30.42 in    
Wind  
Wind Speed 2 mph (NE)    
Max Wind Speed 7 mph    
Max Gust Speed -    
Visibility 10 miles    
Events      
Averages and records for this station are not official NWS values.
T = Trace of Precipitation, MM = Missing Value Source: NWS Daily Summary

Daily Weather History Graph

Daily Weather History Graph

Search for Another Location

Airport:

Trip Planner

Search our weather history database for the weather conditions in past years. The results will help you decide how hot, cold, wet, or windy it might be!

Date:

Astronomy

Jan. 04, 2014 Rise Set
Actual Time 7:29 AM EST 4:53 PM EST
Civil Twilight 6:59 AM EST 5:23 PM EST
Nautical Twilight 6:25 AM EST 5:57 PM EST
Astronomical Twilight 5:52 AM EST 6:30 PM EST
Moon 9:33 AM EST (1/4) 9:11 PM EST (1/4)
Length of Visible Light 10h 24m
Length of Day
9h 23m
Waxing Crescent, 15% of the Moon is Illuminated
Jan 4
Waxing Crescent
Jan 7
First Quarter
Jan 15
Full
Jan 24
Last Quarter
Jan 30
New

Hourly Weather History & Observations

Time (EST) Temp. Windchill Dew Point Humidity Pressure Visibility Wind Dir Wind Speed Gust Speed Precip Events Conditions
12:58 AM -3.1 °F - -4.7 °F 93% 30.49 in 10.0 mi NE 2.3 mph - N/A   Clear
1:58 AM -0.0 °F - -1.5 °F 94% 30.48 in 10.0 mi Calm Calm - N/A   Clear
2:58 AM -2.4 °F - -4.0 °F 93% 30.51 in 10.0 mi Variable 1.2 mph - N/A   Clear
3:58 AM -2.4 °F - -3.3 °F 96% 30.48 in 10.0 mi NNW 2.3 mph - N/A   Mostly Cloudy
4:58 AM 0.7 °F - -1.1 °F 92% 30.48 in 10.0 mi North 2.3 mph - N/A   Scattered Clouds
5:58 AM 0.3 °F - -0.9 °F 94% 30.51 in 10.0 mi Calm Calm - N/A   Clear
6:58 AM -1.3 °F - -2.2 °F 96% 30.51 in 10.0 mi NNE 2.3 mph - N/A   Clear
7:58 AM -0.9 °F - -2.4 °F 94% 30.53 in 10.0 mi Calm Calm - N/A   Clear
8:58 AM 3.2 °F - 0.1 °F 87% 30.54 in 10.0 mi ENE 2.3 mph - N/A   Clear
9:58 AM 11.1 °F - -0.4 °F 60% 30.53 in 10.0 mi Calm Calm - N/A   Clear
10:58 AM 15.1 °F - 1.2 °F 54% 30.50 in 10.0 mi West 1.2 mph - N/A   Clear
11:58 AM 16.9 °F 11.5 °F 3.4 °F 55% 30.43 in 10.0 mi Variable 3.5 mph - N/A   Clear
12:58 PM 20.3 °F 15.4 °F 4.5 °F 50% 30.40 in 10.0 mi SSE 3.5 mph - N/A   Clear
1:58 PM 22.6 °F 15.3 °F 5.0 °F 47% 30.37 in 10.0 mi South 5.8 mph - N/A   Clear
2:58 PM 24.6 °F 16.7 °F 6.3 °F 46% 30.36 in 10.0 mi South 6.9 mph - N/A   Clear
3:58 PM 25.0 °F 19.3 °F 7.7 °F 48% 30.35 in 10.0 mi SSE 4.6 mph - N/A   Clear
4:58 PM 23.9 °F 19.5 °F 9.5 °F 54% 30.34 in 10.0 mi SE 3.5 mph - N/A   Clear
5:58 PM 17.4 °F 12.1 °F 11.5 °F 78% 30.35 in 10.0 mi NE 3.5 mph - N/A   Clear
6:58 PM 16.0 °F - 12.9 °F 88% 30.35 in 10.0 mi NNE 2.3 mph - N/A   Clear
7:58 PM 11.5 °F 5.3 °F 11.3 °F 99% 30.35 in 10.0 mi NNE 3.5 mph - N/A   Clear
8:58 PM 12.6 °F 4.8 °F 12.2 °F 98% 30.33 in 10.0 mi NE 4.6 mph - N/A   Clear
9:58 PM 8.8 °F - 8.6 °F 99% 30.32 in 10.0 mi NNE 2.3 mph - N/A   Clear
10:58 PM 9.5 °F - 9.3 °F 99% 30.31 in 10.0 mi NE 2.3 mph - N/A   Clear
11:58 PM 9.0 °F - 8.6 °F 98% 30.29 in 10.0 mi NNE 2.3 mph - N/A   Clear